COSMOS 2024 (ETALON 2)

Last updated on Wed Aug 26 2026 00:04:27 GMT+0000 (Coordinated Universal Time)

1 20026U 89039C 26237.45952803 -.00000026 00000+0 00000+0 0 9992 2 20026 64.8882 308.1472 0020854 212.2599 159.0933 2.13204741289982
UTC large
Height (km)
Speed (km/s)
/
Latitude / Longitude
Inclination (degrees)
Orbital Period (minutes)
Azimuth
Elevation
Range (km)
Doppler Factor

Next 0 passes for location: London (51.5072 / 0.1276)

No passes found over London.
COSMOS 2024 (ETALON 2)